Home > Weather > Douala > Past weeks

Flag for Cameroon Weather for the Past 2 Weeks in Douala, Cameroon

Now
82 °F

Fog.


Feels Like: 92 °F
Forecast: 77 / 92 °F
Wind: 5 mph from East

Location: Douala Obs.

Current Time: Feb 7, 2016 at 9:38:46 AM

Latest Report: Feb 7, 2016 at 9:00 AM


Visibility: 1 mi

Pressure: 29.92 "Hg

Humidity: 89%

Dew point: 79 °F

Location of DoualaLocation

Historic Weather in Douala — Graph

°F

Douala Temperature Yesterday

Maximum temperature yesterday: 91 °F (at 2:00 PM)
Minimum temperature yesterday: 81 °F (at 4:00 AM)
Average temperature yesterday: 84 °F

High & Low Weather Summary for the Past Weeks

 TemperatureHumidityPressure
High97 °F (Jan 29, 3:00 PM)100% (Jan 24, 6:00 AM)29.98 "Hg (Jan 24, 6:00 AM)
Low73 °F (Jan 30, 7:00 AM)27% (Jan 29, 3:00 PM)29.71 "Hg (Feb 2, 4:00 PM)
Average84 °F79%29.86 "Hg
* Reported Jan 23 8:00 AM — Feb 7 8:00 AM, Douala, Weather by CustomWeather, © 2016

Note: Actual official high and low records may vary slightly from our data, if they occured in-between our weather recording intervals... More about our weather records

Advertising

Douala Weather History for the Previous 24 Hours

 ConditionsComfort  
Time TempWeatherWind HumidityBarometerVisibility
8:00 AM
Sun, Feb 7
81 °FFog.3 mph94%29.92 "Hg1 mi
7:00 AM81 °FFog.No wind94%29.89 "Hg1 mi
6:00 AM81 °FFog.No wind94%29.89 "Hg1 mi
5:00 AM81 °FFog.No wind94%29.86 "Hg1 mi
4:00 AM79 °FFog.No wind100%29.86 "Hg1 mi
3:00 AM79 °FFog.1 mph100%29.86 "Hg1 mi
2:00 AM81 °FPartly cloudy.No wind94%29.86 "Hg1 mi
1:00 AM81 °FPartly cloudy.No wind94%29.86 "Hg4 mi
12:00 AM81 °FPartly cloudy.2 mph94%29.86 "Hg4 mi
11:00 PM
Sat, Feb 6
81 °FFog.No wind94%29.89 "Hg1 mi
10:00 PM82 °FPartly cloudy.1 mph89%29.89 "Hg1 mi
9:00 PM84 °FPartly cloudy.1 mph84%29.86 "Hg1 mi
8:00 PM84 °FPassing clouds.2 mph84%29.83 "Hg1 mi
7:00 PM86 °FPassing clouds.7 mph75%29.80 "Hg1 mi
6:00 PM88 °FScattered clouds.5 mph70%29.77 "Hg1 mi
5:00 PM88 °FScattered clouds.6 mph70%29.77 "Hg1 mi
4:00 PM90 °FPartly sunny.9 mph67%29.80 "Hg1 mi
3:00 PM90 °FPartly sunny.10 mph67%29.80 "Hg1 mi
2:00 PM91 °FPartly sunny.10 mph71%29.80 "Hg1 mi
1:00 PM90 °FPartly sunny.8 mph67%29.83 "Hg1 mi
12:00 PM88 °FPartly sunny.3 mph70%29.89 "Hg1 mi
11:00 AM86 °FPartly sunny.3 mph75%29.89 "Hg1 mi
10:00 AM84 °FScattered clouds.2 mph79%29.92 "Hg1 mi
9:00 AM84 °FScattered clouds.2 mph79%29.92 "Hg1 mi
Weather by CustomWeather, © 2016

See weather overviewHow to use our weather pages